International Skating Union - Official Site

ISU World Cup Speed Skating Erfurt
January 19 - 21, 2018

Draw | Lap Times | Index | World Cup

Referee: Karl  SKOOG  (SWE)
Starter: Jan  ZWIER  (NED)
StartTime: EndTime: Air Temp: Ice Temp: Humidity:
16:04 16:47 16.9℃ 7.5℃ 31%
Result 3000m Ladies Division A
Rankings as of Jan 21 2018 5:01PM
Rank: No.: Name: Nation: Time: Behind: Points:
1 206 Ivanie  Blondin CAN CAN 4:04.86200m - 20.68 - (20.6)
600m - 52.44 - (31.7)
1000m - 1:24.66 - (32.2)
1400m - 1:56.78 - (32.1)
1800m - 2:28.62 - (31.8)
2200m - 3:00.46 - (31.8)
2600m - 3:32.50 - (32.0)
3000m - 4:04.86 - (32.3)
100
2 242 Antoinette  de Jong NED NED 4:05.45200m - 20.17 - (20.1)
600m - 51.22 - (31.0)
1000m - 1:22.47 - (31.2)
1400m - 1:54.17 - (31.7)
1800m - 2:26.38 - (32.2)
2200m - 2:59.02 - (32.6)
2600m - 3:32.11 - (33.0)
3000m - 4:05.45 - (33.3)
0.59 80
3 220 Martina  Sáblíková CZE CZE 4:05.91200m - 20.70 - (20.7)
600m - 52.48 - (31.7)
1000m - 1:24.56 - (32.0)
1400m - 1:56.57 - (32.0)
1800m - 2:28.74 - (32.1)
2200m - 3:00.91 - (32.1)
2600m - 3:33.30 - (32.3)
3000m - 4:05.91 - (32.6)
1.05 70
4 205 Marina  Zueva BLR BLR 4:07.29200m - 20.14 - (20.1)
600m - 52.25 - (32.1)
1000m - 1:24.06 - (31.8)
1400m - 1:56.19 - (32.1)
1800m - 2:28.51 - (32.3)
2200m - 3:01.04 - (32.5)
2600m - 3:34.13 - (33.0)
3000m - 4:07.29 - (33.1)
2.43 60
5 279 Natalia  Voronina RUS RUS 4:08.22200m - 20.13 - (20.1)
600m - 52.43 - (32.3)
1000m - 1:24.38 - (31.9)
1400m - 1:56.94 - (32.5)
1800m - 2:29.33 - (32.3)
2200m - 3:02.20 - (32.8)
2600m - 3:35.10 - (32.9)
3000m - 4:08.22 - (33.1)
3.36 50
6 250 Melissa  Wijfje NED NED 4:09.69200m - 20.03 - (20.0)
600m - 51.28 - (31.2)
1000m - 1:23.05 - (31.7)
1400m - 1:55.73 - (32.6)
1800m - 2:28.31 - (32.5)
2200m - 3:01.49 - (33.1)
2600m - 3:35.07 - (33.5)
3000m - 4:09.69 - (34.6)
4.83 45
7 245 Linda  de Vries NED NED 4:09.92200m - 20.03 - (20.0)
600m - 52.31 - (32.2)
1000m - 1:24.81 - (32.5)
1400m - 1:56.78 - (31.9)
1800m - 2:28.83 - (32.0)
2200m - 3:01.36 - (32.5)
2600m - 3:35.16 - (33.8)
3000m - 4:09.92 - (34.7)
5.06 40
8 280 Anna  Yurakova RUS RUS 4:10.18200m - 20.73 - (20.7)
600m - 52.63 - (31.9)
1000m - 1:24.76 - (32.1)
1400m - 1:57.17 - (32.4)
1800m - 2:29.62 - (32.4)
2200m - 3:02.52 - (32.9)
2600m - 3:36.09 - (33.5)
3000m - 4:10.18 - (34.0)
5.32 35
9 257 Ida  Njåtun NOR NOR 4:10.59200m - 19.79 - (19.7)
600m - 50.95 - (31.1)
1000m - 1:23.12 - (32.1)
1400m - 1:55.52 - (32.4)
1800m - 2:28.44 - (32.9)
2200m - 3:01.92 - (33.4)
2600m - 3:35.83 - (33.9)
3000m - 4:10.59 - (34.7)
5.73 30
10 228 Roxane  Dufter GER GER 4:10.68200m - 20.51 - (20.5)
600m - 51.34 - (30.8)
1000m - 1:23.04 - (31.7)
1400m - 1:55.23 - (32.1)
1800m - 2:27.98 - (32.7)
2200m - 3:01.36 - (33.3)
2600m - 3:35.67 - (34.3)
3000m - 4:10.68 - (35.0)
5.82 25
11 230 Claudia  Pechstein GER GER 4:11.04200m - 20.65 - (20.6)
600m - 52.72 - (32.0)
1000m - 1:25.16 - (32.4)
1400m - 1:57.83 - (32.6)
1800m - 2:30.74 - (32.9)
2200m - 3:03.82 - (33.0)
2600m - 3:37.57 - (33.7)
3000m - 4:11.04 - (33.4)
6.18 21
12 236 Francesca  Lollobrigida ITA ITA 4:12.73200m - 20.01 - (20.0)
600m - 51.56 - (31.5)
1000m - 1:24.33 - (32.7)
1400m - 1:56.52 - (32.1)
1800m - 2:29.84 - (33.3)
2200m - 3:03.54 - (33.7)
2600m - 3:37.92 - (34.3)
3000m - 4:12.73 - (34.8)
7.87 18
13 209 Jiachen  Hao CHN CHN 4:13.20200m - 20.52 - (20.5)
600m - 52.69 - (32.1)
1000m - 1:25.38 - (32.6)
1400m - 1:58.23 - (32.8)
1800m - 2:31.69 - (33.4)
2200m - 3:05.27 - (33.5)
2600m - 3:39.40 - (34.1)
3000m - 4:13.20 - (33.8)
8.34 16
14 272 Olga  Graf RUS RUS 4:13.35200m - 20.95 - (20.9)
600m - 53.34 - (32.3)
1000m - 1:25.94 - (32.6)
1400m - 1:58.76 - (32.8)
1800m - 2:31.88 - (33.1)
2200m - 3:05.38 - (33.5)
2600m - 3:39.34 - (33.9)
3000m - 4:13.35 - (34.0)
8.49 14
15 202 Jelena  Peeters BEL BEL 4:14.65200m - 20.01 - (20.0)
600m - 52.25 - (32.2)
1000m - 1:25.03 - (32.7)
1400m - 1:58.26 - (33.2)
1800m - 2:31.71 - (33.4)
2200m - 3:05.56 - (33.8)
2600m - 3:40.00 - (34.4)
3000m - 4:14.65 - (34.6)
9.79 12
16 221 Nikola  Zdráhalova CZE CZE 4:15.62200m - 19.92 - (19.9)
600m - 52.78 - (32.8)
1000m - 1:25.92 - (33.1)
1400m - 1:59.37 - (33.4)
1800m - 2:33.15 - (33.7)
2200m - 3:07.32 - (34.1)
2600m - 3:41.42 - (34.1)
3000m - 4:15.62 - (34.2)
10.76 10